Weather History for KHKA - January, 2013

Change the Weather History Date:

Wednesday, January 9, 2013

  Actual Average Record
Temperature  
Mean Temperature 50 °F -  
Max Temperature 55 °F 41 °F 72 °F (1957)
Min Temperature 46 °F 25 °F 3 °F (1988)
Degree Days  
Heating Degree Days 14    
Moisture  
Dew Point 47 °F    
Average Humidity 88    
Maximum Humidity 97    
Minimum Humidity 80    
Precipitation  
Precipitation 0.12 in - - ()
Sea Level Pressure  
Sea Level Pressure 30.34 in    
Wind  
Wind Speed 5 mph (ENE)    
Max Wind Speed 16 mph    
Max Gust Speed -    
Visibility 9 miles    
Events Rain    
Averages and records for this station are not official NWS values.
T = Trace of Precipitation, MM = Missing Value Source: NWS Daily Summary

Daily Weather History Graph

Daily Weather History Graph

Search for Another Location

Airport or City:

Trip Planner

Search our weather history database for the weather conditions in past years. The results will help you decide how hot, cold, wet, or windy it might be!

Date:

Astronomy

Jan. 09, 2013 Rise Set
Actual Time 7:10 AM CST 5:03 PM CST
Civil Twilight 6:41 AM CST 5:31 PM CST
Nautical Twilight 6:10 AM CST 6:03 PM CST
Astronomical Twilight 5:39 AM CST 6:34 PM CST
Moon 4:49 AM CST (1/9) 3:05 PM CST (1/9)
Length of Visible Light 10h 49m
Length of Day
9h 53m
Waning Crescent, 6% of the Moon is Illuminated
Jan 9
Waning Crescent
Jan 11
New
Jan 18
First Quarter
Jan 26
Full
Feb 3
Last Quarter

Hourly Weather History & Observations

Time (CST) Temp. Dew Point Humidity Pressure Visibility Wind Dir Wind Speed Gust Speed Precip Events Conditions
12:53 AM 46.0 °F 41.0 °F 83% 30.25 in 10.0 mi Calm Calm - N/A   Overcast
1:45 AM 46.4 °F 41.0 °F 81% 30.25 in 10.0 mi Calm Calm - N/A   Overcast
1:53 AM 46.9 °F 41.0 °F 80% 30.26 in 10.0 mi Calm Calm - N/A   Overcast
2:53 AM 46.9 °F 43.0 °F 86% 30.25 in 10.0 mi ESE 4.6 mph - 0.00 in Rain Light Rain
3:53 AM 48.0 °F 44.1 °F 86% 30.26 in 10.0 mi ESE 3.5 mph - 0.00 in Rain Light Rain
4:53 AM 48.0 °F 45.0 °F 89% 30.25 in 10.0 mi SE 3.5 mph - 0.01 in Rain Light Rain
5:27 AM 46.4 °F 44.6 °F 93% 30.27 in 10.0 mi Calm Calm - 0.00 in Rain Light Rain
5:53 AM 46.9 °F 45.0 °F 93% 30.30 in 8.0 mi North 9.2 mph - 0.01 in Rain Light Rain
6:53 AM 46.9 °F 44.1 °F 90% 30.33 in 10.0 mi NNE 6.9 mph - 0.00 in Rain Light Rain
7:53 AM 46.9 °F 45.0 °F 93% 30.38 in 6.0 mi NNE 4.6 mph - 0.00 in Rain Light Rain
8:53 AM 46.9 °F 46.0 °F 97% 30.38 in 3.0 mi ENE 6.9 mph - 0.01 in Rain Light Rain
9:00 AM 48.2 °F 46.4 °F 93% 30.38 in 4.0 mi ENE 5.8 mph - 0.00 in Rain Light Rain
9:07 AM 48.2 °F 46.4 °F 93% 30.39 in 5.0 mi NE 8.1 mph - 0.00 in   Overcast
9:17 AM 48.2 °F 46.4 °F 93% 30.39 in 5.0 mi ENE 6.9 mph - 0.00 in   Overcast
9:53 AM 48.9 °F 46.9 °F 93% 30.39 in 8.0 mi ENE 4.6 mph - 0.00 in Rain Light Rain
10:09 AM 48.2 °F 46.4 °F 93% 30.38 in 6.0 mi ENE 8.1 mph - 0.00 in Rain Light Rain
10:39 AM 48.2 °F 46.4 °F 93% 30.38 in 6.0 mi ENE 9.2 mph - 0.01 in Rain Light Rain
10:53 AM 50.0 °F 48.0 °F 93% 30.38 in 9.0 mi East 9.2 mph - 0.01 in   Overcast
11:12 AM 50.0 °F 48.2 °F 94% 30.37 in 9.0 mi ENE 6.9 mph - N/A   Overcast
11:53 AM 52.0 °F 50.0 °F 93% 30.35 in 10.0 mi East 8.1 mph - N/A   Overcast
12:48 PM 53.6 °F 50.0 °F 88% 30.33 in 10.0 mi East 10.4 mph - N/A   Overcast
12:53 PM 54.0 °F 50.0 °F 86% 30.33 in 10.0 mi East 8.1 mph - N/A   Overcast
1:53 PM 55.9 °F 51.1 °F 84% 30.33 in 10.0 mi ENE 6.9 mph - N/A   Partly Cloudy
2:07 PM 55.4 °F 51.8 °F 88% 30.32 in 10.0 mi NNE 9.2 mph - N/A   Mostly Cloudy
2:53 PM 55.0 °F 51.1 °F 86% 30.34 in 10.0 mi NE 10.4 mph - N/A   Mostly Cloudy
3:31 PM 55.4 °F 50.0 °F 82% 30.34 in 10.0 mi NNE 9.2 mph - N/A   Mostly Cloudy
4:48 PM 53.6 °F 48.2 °F 82% 30.34 in 10.0 mi NE 10.4 mph - N/A   Overcast
4:53 PM 53.1 °F 48.0 °F 83% 30.34 in 10.0 mi NE 10.4 mph - N/A   Overcast
5:08 PM 53.6 °F 48.2 °F 82% 30.34 in 10.0 mi NE 9.2 mph - N/A   Overcast
5:53 PM 53.1 °F 48.0 °F 83% 30.35 in 10.0 mi NE 10.4 mph - N/A   Overcast
6:53 PM 53.1 °F 48.0 °F 83% 30.36 in 10.0 mi ENE 11.5 mph - N/A   Overcast
7:53 PM 53.1 °F 46.9 °F 80% 30.35 in 10.0 mi ENE 16.1 mph - N/A   Overcast
8:53 PM 52.0 °F 46.9 °F 83% 30.35 in 10.0 mi NE 13.8 mph - 0.00 in Rain Light Rain
9:53 PM 51.1 °F 46.9 °F 86% 30.36 in 10.0 mi ENE 12.7 mph - 0.00 in Rain Light Rain
10:53 PM 50.0 °F 46.9 °F 89% 30.36 in 8.0 mi ENE 11.5 mph - 0.02 in Rain Light Rain
11:53 PM 50.0 °F 46.9 °F 89% 30.35 in 6.0 mi ENE 10.4 mph - 0.06 in Rain Rain